Regional Weather Roundup
Issued by NWS

Home | Current Version | Previous Version | Graphics & Text | Print | Product List | Glossary On
Versions: 1 2 3 4 5 6 7 8 9 10 11 12 13 14 15 16 17 18 19 20 21 22 23 24 25 26 27 28 29 30 31 32 33 34 35 36 37 38 39 40 41 42 43 44 45 46 47 48 49 50
000
ASUS43 KTOP 281408
RWRKS

WEATHER ROUNDUP FOR KANSAS
NATIONAL WEATHER SERVICE GOODLAND KS
900 AM CDT SAT MAR 28 2015

NOTE:  "FAIR" INDICATES FEW OR NO CLOUDS BELOW 12,000 FEET WITH NO
SIGNIFICANT WEATHER AND/OR OBSTRUCTIONS TO VISIBILITY.

KSZ001>006-013>018-027>032-041>047-281500-
NORTHWEST KANSAS

CITY           SKY/WX    TMP DP  RH WIND       PRES   REMARKS
GOODLAND       SUNNY     48  36  63 W7        30.04R
HAYS           SUNNY     41  30  65 N8        30.02R
HILL CITY      SUNNY     41  31  67 NE5       30.04R
RUSSELL        SUNNY     39  34  82 NE7       30.01R
$$

KSZ061>065-074>080-084>089-281500-
SOUTHWEST KANSAS

CITY           SKY/WX    TMP DP  RH WIND       PRES   REMARKS
DODGE CITY     SUNNY     54  36  50 NW10      30.01R
ELKHART          N/A     53  34  48 W9          N/A
GARDEN CITY    SUNNY     48  36  63 W7        30.01R
GREAT BEND     SUNNY     39  32  75 N3        30.01R
LIBERAL        SUNNY     54  36  50 NW12      30.03S
PRATT          SUNNY     48  37  66 NW6       30.00R
$$

KSZ066>073-081>083-090>101-281500-
SOUTHEAST KANSAS

CITY           SKY/WX    TMP DP  RH WIND       PRES   REMARKS
CHANUTE        MOSUNNY   44  31  60 SE9       30.08F
COFFEYVILLE    PTSUNNY   46  35  65 SE9       30.08S
HUTCHINSON     SUNNY     44  35  70 SE5       30.02R
MEDICINE LODGE   N/A     46  38  73 CALM      29.99R
NEWTON         SUNNY     43  28  56 SE8       30.04S
PARSONS        PTSUNNY   45  34  65 VRB5      30.11R
WICHITA INTL   MOSUNNY   44  34  67 SE6       30.02R
WICHITA JABRA  SUNNY     45  34  65 S8        30.02R
WICHITA MCCONL SUNNY     46  35  65 SE5       30.02R
WINFIELD       SUNNY     49  38  65 S9        30.03R
$$

KSZ007>012-019>026-033>040-048>060-102>105-281500-
NORTHEAST KANSAS

CITY           SKY/WX    TMP DP  RH WIND       PRES   REMARKS
CONCORDIA      SUNNY     38  26  62 E8        30.06R
EMPORIA        MOSUNNY   41  29  62 E13       30.07R
LAWRENCE       CLOUDY    41  26  55 E13       30.14S
MANHATTAN      SUNNY     41  28  60 E10       30.08S
MARYSVILLE     SUNNY     37  28  70 SE14      30.09S WCI  29
OLATHE IND     CLOUDY    38  27  64 E12       30.15S WCI  30
OLATHE EXE     PTSUNNY   39  28  64 E15       30.15S WCI  31
SALINA         SUNNY     43  31  62 E7        30.04S
TOPEKA BILLARD SUNNY     42  25  50 E18       30.13R
TOPEKA FORBES  SUNNY     42  27  55 E14       30.11R
$$



USA.gov is the U.S. government's official web portal to all federal, state and local government web resources and services.